Location: Ajax Mine
(37.9283°N, 107.7381°W)
Time: 04:26:10
(UTC+00:00)

Daily predictions for brighter satellites

Satellite Brightness Start Highest point End
(mag) Time Altitude Azimuth Time Altitude Azimuth Time Altitude Azimuth
Cosmos 2151 Rocket 3.6 02:59:13 10° N 03:03:37 84° E 03:08:00 10° S
Cosmos 1300 Rocket 4.5 03:00:45 10° NNW 03:04:57 51° W 03:09:07 10° SSW
Meteor 1-22 Rocket 4.3 02:59:07 10° N 03:04:58 79° E 03:10:33 10° SSE
SL-24 DEB 4.4 03:00:24 10° SSE 03:05:03 61° E 03:09:45 10° N
Cosmos 1674 Rocket 3.6 03:04:54 10° S 03:09:17 86° W 03:13:42 10° N
Cosmos 1605 Rocket 4.3 03:04:15 10° N 03:10:31 55° E 03:16:41 10° SSE
Resurs 01 Rocket 2.7 03:07:17 10° SE 03:11:04 29° ENE 03:14:52 10° N
Okean 2 3.3 03:07:18 10° S 03:11:21 71° E 03:15:25 10° NNE
Cosmos 1400 Rocket 3.8 03:11:56 10° NNW 03:15:39 46° W 03:19:22 10° SSW
Cosmos 2285 Rocket 4.2 03:12:51 10° SSW 03:19:17 83° WNW 03:25:45 10° NNE
Cosmos 1842 4.2 03:15:44 10° SSW 03:19:34 52° W 03:23:26 10° N
Cosmos 1953 4.2 03:18:33 10° NE 03:21:01 15° ENE 03:23:29 10° ESE
Cosmos 2333 Rocket 3.6 03:17:21 10° SE 03:21:12 19° E 03:25:02 10° ENE
Cosmos 1674 4.0 03:19:21 10° SE 03:22:12 21° E 03:25:04 10° NE
Cosmos 2219 Rocket 3.7 03:19:39 10° SE 03:22:55 16° E 03:26:11 10° ENE
BREEZE-M DEB (TANK) 1.4 03:22:20 10° SW 03:24:40 42° SE 03:27:11 10° ENE
Cosmos 1726 2.1 03:22:10 10° N 03:25:46 66° E 03:29:23 10° SSE
ASTRO E2 3.9 03:24:10 10° SW 03:27:25 25° SSE 03:30:12 13° ESE
FALCON 9 DEB 3.3 03:27:47 10° SSW 03:30:42 37° SE 03:33:37 10° ENE
Cosmos 1452 Rocket 3.5 03:28:06 10° SSW 03:33:23 87° ESE 03:38:41 10° NNE
Cosmos 292 Rocket 4.4 03:29:45 10° SSW 03:34:31 61° WNW 03:39:18 10° N
OBJECT-B 3.1 03:39:30 10° SSW 03:42:03 22° W 03:44:36 10° NW
Cosmos 1470 3.1 03:39:39 10° NNW 03:43:36 67° W 03:47:29 10° S
Cosmos 2360 Rocket 2.1 03:40:41 10° SSW 03:46:18 73° ESE 03:51:55 10° NNE
Cosmos 1850 Rocket 4.4 03:41:29 10° N 03:46:38 51° ENE 03:50:27 17° SE
Cosmos 1340 4.4 03:46:01 15° ESE 03:46:48 16° E 03:49:08 10° NE
FALCON 9 DEB 2.8 03:44:24 10° SW 03:47:29 87° NW 03:50:35 10° NE
ARIANE 5 R/B 4.2 03:45:36 14° ESE 03:48:04 22° ENE 03:51:31 10° NNE
SL-16 R/B 3.4 03:44:06 10° SW 03:49:31 46° WNW 03:54:59 10° N
Cosmos 2322 Rocket 2.9 03:44:19 10° SW 03:49:55 60° WNW 03:55:35 10° NNE
Cosmos 1331 Rocket 4.1 03:46:59 10° S 03:52:04 56° ESE 03:57:13 10° NNE
Cosmos 1455 Rocket 3.7 03:49:19 10° N 03:53:32 40° E 03:56:07 20° SE
Okean 1 Rocket 3.7 03:49:26 10° NNW 03:53:43 56° W 03:58:01 10° S
FALCON 9 DEB 2.7 03:51:20 10° SW 03:54:26 81° SE 03:57:33 10° NE
FALCON 9 DEB 3.1 03:54:40 10° SW 03:57:45 72° NW 04:00:51 10° NE
SPOT 1/Viking Rocket 3.8 03:54:25 18° SE 03:58:03 52° ENE 04:03:01 10° N
ATLAS 3B R/B 2.7 03:53:14 10° S 03:59:32 54° ESE 04:05:59 10° NE
IGS 5A 3.5 03:58:31 15° S 04:01:55 77° W 04:06:06 10° NNW
Cosmos 1908 3.6 04:04:20 10° N 04:08:05 47° E 04:09:39 29° SE
Meteor 1-16 Rocket 4.1 04:04:00 10° N 04:09:23 64° E 04:12:43 23° SSE
Cosmos 1461 3.1 04:05:58 10° NNW 04:10:04 54° ENE 04:11:53 28° ESE
Cosmos 1626 2.3 04:10:27 29° SSE 04:11:59 51° E 04:15:34 10° NNE
Cosmos 1315 Rocket 4.3 04:08:14 10° NNW 04:11:59 34° W 04:15:41 10° SSW
Aureole 1 Rocket 4.4 04:05:48 10° N 04:12:06 61° ENE 04:17:14 22° SE
Cosmos 2322 3.8 04:06:46 10° S 04:12:13 53° ESE 04:17:43 10° NNE
Cosmos 1302 Rocket 4.4 04:09:49 21° SSE 04:12:54 41° ESE 04:17:49 10° NNE
COSMOS 2428 3.3 04:10:07 21° SSE 04:13:10 36° ESE 04:18:21 10° NE
Terra 3.3 04:12:29 18° E 04:14:22 23° ENE 04:18:02 10° NNE
ATLAS CENTAUR R/B 3.1 04:11:01 10° N 04:14:43 26° NE 04:16:58 18° E
Cosmos 1025 Rocket 3.0 04:15:21 23° S 04:17:55 65° E 04:22:15 10° NNE
Cosmos 1536 Rocket 4.4 04:17:04 28° ESE 04:18:17 33° E 04:22:15 10° NNE
SPOT 5 3.8 04:16:00 24° ESE 04:18:19 37° ENE 04:22:49 10° N
Cosmos 2278 Rocket 4.4 04:16:58 10° NNE 04:19:02 12° NE 04:21:05 10° ENE
IUS-18 SRM-1 4.0 04:08:31 10° WSW 04:19:07 31° SSW 04:20:37 26° SSE
Cosmos 1741 Rocket 4.0 04:15:37 10° NNW 04:20:54 81° WSW 04:24:05 25° S
Cosmos 1844 Rocket 2.7 04:17:08 10° NNW 04:22:48 71° ENE 04:25:49 28° SE
Cosmos 2100 Rocket 4.0 04:17:34 10° N 04:23:58 81° E 04:28:07 23° S
SL-4 R/B 2.5 04:20:09 10° SSW 04:24:08 36° SE 04:27:50 10° ENE
SPOT 3 Rocket 4.1 04:22:39 16° S 04:26:37 55° W 04:31:42 10° NNW
CZ-2C R/B 4.3 04:23:23 10° N 04:28:06 60° WNW 04:32:46 10° SSW
CARTOSAT-1 3.5 04:29:12 36° SSE 04:30:51 68° ENE 04:35:08 10° N
USA 215 3.9 04:26:09 10° ENE 04:31:44 30° SE 04:32:55 28° SE
Lacrosse 5 rocket 3.5 04:29:45 10° W 04:32:53 25° NW 04:35:56 10° NNE
Lacrosse 5 3.4 04:31:09 10° WNW 04:35:21 27° WSW 04:37:47 18° SSW
Cosmos 2173 Rocket 4.0 04:31:39 10° N 04:38:03 84° W 04:42:02 25° S
USA 245 4.2 04:35:58 28° S 04:38:34 71° W 04:44:16 10° NNW
Cosmos 2016 Rocket 4.0 04:35:43 10° N 04:41:48 68° E 04:44:37 33° SSE
Cosmos 405 3.4 04:39:14 10° N 04:42:28 43° ENE 04:42:28 43° ENE
Resurs 01 Rocket 3.6 04:44:07 10° SSW 04:47:31 23° W 04:51:00 10° NW
SL-14 R/B 3.3 04:47:34 44° SSW 04:48:47 84° W 04:52:49 10° N
Cosmos 968 Rocket 4.3 04:47:25 10° N 04:52:08 36° ENE 04:53:28 31° E
H-2A R/B 3.6 04:51:23 10° NNE 04:55:23 52° E 04:55:24 52° ESE
Cosmos 1725 Rocket 3.9 04:49:32 10° N 04:55:43 75° E 04:58:14 38° SSE
Cosmos 1953 3.7 04:53:49 10° NNW 04:57:29 33° W 04:59:12 23° SW
Cosmos 1992 Rocket 4.3 04:57:08 42° ESE 04:57:38 43° ESE 05:02:33 10° NNE
Meteor 2-5 Rocket 3.6 04:56:51 37° S 04:59:09 81° E 05:04:46 10° N
DNEPR-1 R/B 3.7 04:59:49 10° NNW 05:04:02 63° ENE 05:04:43 54° ESE
Cosmos 2333 Rocket 2.8 04:59:18 10° SW 05:04:56 56° WNW 05:10:35 10° NNE
Cosmos 2219 Rocket 2.6 05:00:53 11° SSW 05:06:14 64° WNW 05:11:53 10° NNE
ATLAS CENTAUR R/B 3.9 05:08:15 25° E 05:08:15 25° E 05:13:30 10° NE
SL-24 R/B 4.3 05:05:02 10° N 05:09:50 72° E 05:10:40 58° SSE
Cosmos 1300 2.7 05:13:20 10° NNW 05:17:01 72° WNW 05:17:01 72° WNW
Cosmos 1844 4.3 05:11:56 10° NW 05:17:16 48° WSW 05:19:00 36° SSW
Geosat 4.1 05:23:07 53° SSW 05:24:02 63° WSW 05:29:02 10° NNW
SL-16 R/B 4.1 05:25:28 14° E 05:25:28 14° E 05:27:17 10° ENE
ARIANE 5 R/B 4.0 05:23:09 27° SW 05:24:19 31° W 05:28:18 10° NW
ERS-1 Rocket 3.6 05:24:12 38° SW 05:25:34 47° W 05:30:26 10° NNW
Cosmos 2237 Rocket 2.3 05:26:03 52° ESE 05:26:16 53° ESE 05:31:44 10° NNE
Cosmos 1606 Rocket 4.0 05:27:15 10° N 05:31:19 50° ENE 05:31:19 50° ENE
Cosmos 1892 Rocket 4.4 05:32:32 39° ENE 05:32:32 39° ENE 05:35:59 10° NNE
Meteor 1-24 Rocket 3.9 05:32:05 40° SW 05:33:52 61° W 05:39:17 10° N
SL-8 R/B 4.1 05:36:47 10° WNW 05:40:51 49° WSW 05:40:51 49° WSW
NOSS 0 Rocket 3.9 05:42:41 42° SSW 05:44:57 80° WNW 05:51:13 10° NNE
Cosmos 389 Rocket 3.9 05:44:17 10° N 05:46:26 36° N 05:46:26 36° N
ATLAS 3B R/B 4.4 05:44:51 10° WSW 05:50:30 30° NW 05:56:19 10° NNE
Terra 2.9 05:51:22 34° WSW 05:51:52 35° W 05:56:13 10° NNW
Cosmos 1346 Rocket 3.7 05:52:28 44° WNW 05:52:28 44° WNW 05:56:06 10° N
ATLAS CENTAUR R/B 2.8 05:49:34 10° NW 05:53:06 33° W 05:53:06 33° W
Cosmos 1503 Rocket 4.2 05:49:03 10° N 05:54:22 58° ENE 05:54:40 57° E
COSMOS 2428 4.3 05:52:24 10° WSW 05:57:25 31° WNW 06:02:29 10° N
Cosmos 967 Rocket 4.4 05:51:44 10° NNW 05:58:06 76° WSW 05:59:04 63° S
SL-4 R/B 3.6 05:59:56 10° W 06:03:43 33° NNW 06:07:15 10° NE
Cosmos 192 4.3 06:04:19 77° NNE 06:04:19 77° NNE 06:08:54 10° NNE
Cosmos 2278 Rocket 2.0 05:58:20 10° NNW 06:04:02 80° ENE 06:04:25 75° ESE
Cosmos 2228 3.8 06:02:00 10° NNW 06:05:50 47° WNW 06:05:50 47° WNW
Cosmos 1891 Rocket 4.4 06:04:05 10° N 06:10:17 77° E 06:11:02 68° SE
Meteor 1-21 Rocket 4.1 06:10:25 74° ESE 06:10:31 74° E 06:16:13 10° NNE
Cosmos 1513 Rocket 4.3 06:08:01 10° N 06:14:08 79° E 06:14:43 72° SE
USA 215 3.4 06:08:30 10° NE 06:15:00 70° NW 06:20:10 17° WSW
Cosmos 1867 3.9 06:18:07 10° NW 06:23:04 53° W 06:23:04 53° W
Cosmos 1072 Rocket 4.4 06:17:30 10° N 06:23:55 86° W 06:24:37 73° S
Cosmos 1943 Rocket 3.7 06:28:04 10° N 06:32:36 25° ENE 06:33:59 23° E
Cosmos 1607 3.8 06:29:13 10° NNW 06:35:37 86° WSW 06:36:00 79° S
Cosmos 2346 Rocket 4.4 06:37:52 66° WSW 06:38:28 71° W 06:44:39 10° N
Okean 1-7 Rocket 4.4 06:40:01 48° NW 06:40:01 48° NW 06:43:35 10° N
Cosmos 1777 Rocket 4.3 06:35:40 10° NNW 06:40:42 61° ENE 06:40:42 61° ENE
Cosmos 1455 4.2 06:39:14 10° NNW 06:41:13 24° NW 06:41:13 24° NW
USA 267 4.2 06:41:13 17° E 06:45:55 43° NNE 06:52:00 10° NW
Cosmos 1464 Rocket 4.2 06:45:23 10° NNW 06:51:36 57° W 06:52:11 55° WSW
Cosmos 2058 Rocket 4.4 06:48:37 10° NNW 06:51:42 34° WNW 06:51:42 34° WNW
Cosmos 1634 Rocket 4.3 06:54:45 10° N 07:00:57 54° E 07:01:35 52° ESE
SL-16 R/B 2.3 07:07:19 64° WNW 07:07:31 64° WNW 07:13:10 10° NNE
SJ 16-02 2.4 07:04:37 10° N 07:07:51 43° NNE 07:07:51 43° NNE
Cosmos 2237 Rocket 4.2 07:07:49 15° W 07:10:38 21° NW 07:14:53 10° N
GP-B 3.9 07:08:20 10° N 07:11:37 49° N 07:11:37 49° N
ALOS 2 4.2 07:21:22 28° WNW 07:21:22 28° WNW 07:24:00 10° NNW
Cosmos 2369 Rocket 3.4 07:19:07 10° N 07:24:20 35° ENE 07:25:57 30° E
Exosat Rocket 4.2 07:27:41 59° ESE 07:27:56 60° ESE 07:33:26 10° NNE
USA 229 DEB 3.4 07:32:11 70° WSW 07:32:54 80° WNW 07:39:39 10° NNE
USA 229 3.4 07:32:19 71° WSW 07:33:00 81° WNW 07:39:45 10° NNE
Cosmos 1953 Rocket 4.5 07:39:07 45° NE 07:39:07 45° NE 07:42:20 10° NNE
Cosmos 1892 4.3 07:40:49 34° N 07:40:49 34° N 07:43:05 10° N
Cosmos 468 Rocket 4.1 07:41:26 70° NE 07:41:26 70° NE 07:46:04 10° NNE
NOSS 3-1 (C) 4.1 07:40:35 36° WNW 07:41:47 40° NW 07:47:29 10° NNE
Cosmos 2278 Rocket 4.5 07:45:15 10° WNW 07:46:15 11° W 07:46:15 11° W
Cosmos 2297 4.0 07:44:17 10° NNW 07:49:04 52° WNW 07:49:04 52° WNW
NOSS 3-1 (A) 3.4 07:52:19 57° WNW 07:52:45 59° NW 07:58:43 10° NNE
Cosmos 2142 Rocket 4.3 07:48:50 10° N 07:55:00 83° W 07:55:25 77° SSW
Cosmos 1763 Rocket 3.5 07:55:45 70° NNW 07:55:45 70° NNW 08:00:28 10° NNE
Cosmos 2098 Rocket 4.3 07:56:36 43° E 07:56:42 43° E 08:01:13 10° NNE
Cosmos-2242 4.4 07:59:20 10° NNW 08:02:09 33° NW 08:02:09 33° NW
SL-16 R/B 4.0 08:00:13 17° ESE 08:03:58 31° ENE 08:09:14 10° N
Cosmos 1825 3.6 08:06:51 36° N 08:06:51 36° N 08:09:09 10° N
In-Cosmos 22 Rocket 4.5 08:07:47 53° W 08:07:53 53° WNW 08:13:15 10° N
Resurs 1-4 Rocket 3.1 08:03:26 10° NNE 08:08:17 35° E 08:08:42 34° ESE
X-37B 3.4 08:10:13 18° NNE 08:10:13 18° NNE 08:11:42 10° NE
MOZ.5/SAFIR/RUBIN 5/SL-8 4.3 08:12:42 50° E 08:13:01 51° ENE 08:17:37 10° N
Cosmos 1943 Rocket 2.9 08:11:19 10° NW 08:15:28 38° W 08:15:28 38° W
Cosmos 1242 Rocket 4.4 08:13:19 10° NNE 08:15:50 27° NE 08:15:50 27° NE
Cosmos 405 Rocket 4.3 08:19:09 29° NNW 08:19:09 29° NNW 08:21:16 10° N
ADEOS II 3.9 08:15:28 10° NE 08:19:12 19° E 08:20:33 18° ESE
Cosmos 1943 3.2 08:20:36 64° W 08:21:01 67° WNW 08:26:39 10° NNE
Cosmos 2180 Rocket 4.4 08:17:25 10° NNW 08:23:45 70° W 08:24:34 63° SW
Cosmos 2058 3.6 08:25:17 49° NNW 08:25:17 49° NNW 08:28:23 10° N
CZ-2D R/B 2.4 08:22:55 10° NNE 08:28:01 52° E 08:28:31 50° ESE
USA 267 3.2 08:28:31 56° SW 08:28:45 56° SW 08:35:10 10° NW
Cosmos 1603 4.0 08:29:22 50° W 08:30:04 54° WNW 08:35:37 10° NNE
Cosmos 2221 2.8 08:28:46 10° N 08:32:29 65° N 08:32:29 65° N
Meteor 2-8 Rocket 4.5 08:27:18 10° N 08:33:27 76° E 08:35:02 51° SSE
Cosmos 540 Rocket 3.6 08:34:14 60° WNW 08:34:21 60° WNW 08:39:26 10° N
USA 307 3.2 08:38:30 63° N 08:38:30 63° N 08:42:16 10° NE
NOSS 2-2 (D) 4.3 08:39:47 38° NE 08:39:47 38° NE 08:42:05 10° NE
DELTA 2 R/B (1) 3.5 08:40:36 49° W 08:42:08 80° N 08:47:43 10° E
Cosmos 1633 3.6 08:43:38 42° NNE 08:43:38 42° NNE 08:46:09 10° NNE
Cosmos 841 Rocket 3.6 08:43:26 57° W 08:43:46 58° WNW 08:48:51 10° N
USA 290 3.8 08:55:04 35° N 08:55:04 35° N 08:57:06 10° NNE
USA 308 3.4 08:53:51 51° NW 08:54:00 51° NW 08:58:10 10° NE
Helios 1B rocket 2.5 08:51:38 10° NNE 08:55:36 72° E 08:55:36 72° E
Cosmos 1656 Rocket 3.6 08:50:34 10° NNW 08:56:12 64° WSW 08:56:50 59° SW
Cosmos 1937 Rocket 3.6 08:52:35 10° NNW 08:57:48 56° WSW 08:57:55 56° WSW
Cosmos 1898 Rocket 4.2 08:53:07 10° NW 08:57:21 37° W 08:57:21 37° W
Cosmos 1606 3.1 08:55:54 10° N 08:59:01 56° NNW 08:59:01 56° NNW
Helios 1A 4.3 09:03:07 29° WNW 09:03:07 29° WNW 09:05:49 10° NNW
Cosmos 2292 Rocket 4.5 09:03:15 27° ENE 09:03:15 27° ENE 09:05:23 10° NNE
ARGOS Delta rocket 4.2 08:58:20 10° N 09:03:45 63° WNW 09:04:48 52° WSW
BREEZE-M R/B 2.9 09:06:01 47° WNW 09:06:37 55° NNW 09:11:03 10° NE
UNK 3.6 09:06:06 63° SSE 09:06:51 88° ENE 09:11:29 10° NNW
Cosmos 2369 Rocket 3.2 09:03:18 10° NW 09:07:41 30° W 09:07:41 30° W
Cosmos 1933 4.3 09:05:30 10° N 09:09:25 44° E 09:10:38 34° SE
OAO 1 4.4 09:09:08 56° SW 09:10:02 66° S 09:15:28 10° E
ATLAS 5 CENTAUR R/B 4.3 09:05:06 32° SSW 09:10:17 39° S 09:55:50 10° ESE
USA 305 4.1 09:10:44 30° WNW 09:11:45 35° NW 09:15:41 10° NNE
Cosmos 1814 Rocket 4.4 09:12:56 42° W 09:13:54 47° WNW 09:18:54 10° N
Meteor 1-29 3.4 09:11:37 10° NNE 09:14:47 55° E 09:14:47 55° E
ATLAS 5 CENTAUR R/B 2.0 09:15:36 40° WNW 09:15:55 41° NW 09:19:58 10° NNE
Cosmos 2026 Rocket 4.0 09:14:13 44° SSW 09:16:19 74° W 09:22:41 10° N
Meteor 2-15 Rocket 4.3 09:12:09 10° N 09:18:18 81° W 09:20:52 37° S
SeaSat 1 4.0 09:14:11 10° NE 09:18:20 27° ESE 09:20:26 20° SE
Lacrosse 4 Rocket 1.7 09:15:14 10° NNW 09:19:16 61° ENE 09:21:02 31° SE
Meteor 2-15 4.5 09:13:39 10° NNW 09:19:41 60° W 09:21:36 42° SSW
FALCON 9 DEB 4.4 09:20:53 10° NW 09:24:07 40° NE 09:27:20 10° ESE
SL-19 R/B 4.2 09:22:05 10° N 09:27:23 72° WNW 09:29:15 42° SW
Landsat 4 3.6 09:23:50 10° NNE 09:27:38 79° ESE 09:28:03 67° SSE
Cosmos 1766 Rocket 4.2 09:27:48 32° SSE 09:29:31 52° E 09:33:52 10° NNE
Cosmos 372 Rocket 4.2 09:26:36 10° NNW 09:31:38 48° WSW 09:32:37 43° SW
Aureole 3 Rocket 3.9 09:30:06 10° NNW 09:34:14 43° W 09:35:12 38° SW
Cosmos 1125 Rocket 4.2 09:30:53 10° N 09:36:04 55° ENE 09:41:14 10° SSE
IRIDIUM 114 4.4 09:32:47 10° N 09:38:01 77° E 09:41:01 26° S
BREEZE-M DEB (TANK) 4.4 09:38:51 28° S 09:39:51 31° SSE 09:42:54 10° E
Okean 3 Rocket 3.7 09:39:32 35° SSE 09:41:18 69° E 09:45:39 10° NNE
ARIANE 5 R/B 3.9 09:40:02 10° NE 09:44:29 32° E 09:48:35 12° SSE
ADEOS Rocket 3.3 09:40:16 17° S 09:46:16 77° WSW 09:53:04 10° NNW
X-37B 2.5 09:43:28 10° NW 09:46:22 32° NNE 09:49:15 10° E
Cosmos 836 Rocket 4.5 09:44:13 35° SSW 09:46:30 87° WNW 09:51:50 10° NNE
IRIDIUM 103 4.2 09:41:55 10° N 09:47:10 86° W 09:50:09 26° S
SL-16 R/B 3.0 09:45:19 31° SW 09:47:21 40° W 09:53:07 10° NNW
Resurs 1-4 Rocket 3.4 09:43:30 10° N 09:47:55 27° WNW 09:49:46 22° W
Cosmos 2151 3.9 09:47:48 29° W 09:48:20 30° WNW 09:52:04 10° NNW
Cosmos 2266 Rocket 4.3 09:47:29 17° S 09:52:14 63° E 09:58:12 10° NNE
ADEOS II 2.5 09:54:03 10° N 09:59:05 47° WNW 10:01:29 28° SW
CZ-4C R/B 2.0 09:57:15 30° SSW 09:59:33 70° ESE 10:05:01 10° NE
ASTEX 1 3.6 09:55:57 15° SSE 10:00:07 74° E 10:05:03 10° N
IRIDIUM 106 4.4 10:00:19 10° N 10:05:26 57° W 10:08:26 24° SSW
Meteor 2-3 Rocket 4.3 10:02:58 26° SW 10:05:29 41° WNW 10:10:44 10° N
CZ-2C R/B 3.1 10:07:20 12° SSE 10:07:20 12° SSE 10:08:47 10° SE
CZ-2D R/B 3.8 10:04:08 10° NNW 10:07:38 18° WNW 10:09:50 14° W
Cosmos 1812 3.3 10:04:08 10° N 10:07:55 55° E 10:11:39 10° SSE
GPS 2-04 Rocket1 2.6 10:06:15 30° WSW 10:08:00 61° S 10:11:49 10° ESE
ERBS 3.4 10:08:20 25° W 10:09:26 31° NW 10:12:22 10° NNE
IDEFIX/ARIANE 42P 2.6 10:07:45 10° N 10:12:57 67° WNW 10:16:18 22° SSW
Delta 2 Rocket 3.5 10:14:09 29° SW 10:15:52 49° S 10:19:31 10° E
Cosmos 1271 Rocket 2.5 10:13:20 10° NNW 10:17:04 77° W 10:19:55 17° S
Cosmos 1782 3.2 10:13:37 10° NNW 10:17:27 45° W 10:19:25 25° SSW
COSMOS 2406 3.8 10:14:08 13° S 10:18:58 53° ESE 10:24:29 10° NNE
CENTAUR R/B 4.5 10:12:25 10° NNW 10:20:13 44° NE 10:28:36 10° ESE
Cosmos 2084 Rocket 3.3 10:18:17 25° SSW 10:20:28 72° ESE 10:24:24 10° NE
CZ-4C R/B 2.9 10:18:37 19° S 10:20:59 67° WSW 10:24:26 10° NNW
Cosmos 1655 Rocket 4.0 10:17:00 18° SSW 10:21:37 65° W 10:27:49 10° N
Meteor 2-16 Rocket 4.4 10:17:41 17° SSW 10:22:31 72° W 10:28:39 10° N
FALCON 9 DEB 4.5 10:21:15 10° NW 10:24:10 38° NE 10:27:04 10° ESE
Chandra Rocket (1) 4.2 10:20:30 18° SW 10:25:05 26° S 10:28:59 10° ESE
SL-08 R/B 3.9 10:20:33 10° SSE 10:25:05 59° ENE 10:29:45 10° N
DELTA 2 R/B (1) 3.6 10:23:12 10° WNW 10:28:46 82° N 10:34:21 10° E
NOSS 3 (A) 3.2 10:31:31 59° NNW 10:31:31 59° NNW 10:32:59 10° NNE
Tianhe-1 1.1 10:30:08 26° SW 10:31:41 65° SSE 10:34:49 10° ENE
CZ-2C R/B 3.3 10:29:22 10° NNE 10:34:05 45° E 10:38:37 10° S
Cosmos 1500 Rocket 3.7 10:29:48 10° S 10:34:06 72° E 10:38:25 10° NNE
Cosmos 1656 4.0 10:28:56 10° NNW 10:34:39 72° ENE 10:40:18 10° SSE
Cosmos 1743 Rocket 3.7 10:34:13 10° S 10:38:35 79° E 10:43:00 10° N
Cosmos 1328 Rocket 4.0 10:34:43 10° NNW 10:38:50 42° W 10:42:31 12° SSW
IRS-1C 4.3 10:33:38 10° N 10:38:53 59° WNW 10:43:31 13° SSW
Cosmos 1697 Rocket 3.9 10:42:11 10° N 10:47:38 46° ENE 10:53:03 10° SE
Cosmos 773 Rocket 4.1 10:44:00 13° SSW 10:48:49 69° WNW 10:54:05 10° NNE
Cosmos 2315 Rocket 4.0 10:43:39 10° N 10:49:51 79° W 10:56:03 10° S
Cosmos 44 3.5 10:45:39 13° SSW 10:50:20 86° WNW 10:55:48 10° NNE
SeaSat 1 3.3 10:51:21 10° N 10:55:51 37° WNW 11:00:12 11° WSW
MSX 4.5 10:50:58 10° N 10:56:17 40° WNW 11:01:35 10° SW
ALOS 3.3 10:53:56 10° NNE 10:58:27 47° E 11:02:56 10° S
Cosmos 2228 Rocket 3.6 10:54:46 10° N 10:59:15 66° E 11:03:39 10° SSE
Sich 1 3.8 10:55:37 10° S 10:59:53 55° E 11:04:12 10° NNE
BREEZE-M DEB (TANK) 4.0 11:02:24 10° S 11:04:08 19° SE 11:05:57 10° E
SL-4 R/B 3.8 11:02:29 10° NNW 11:05:38 30° NNE 11:08:40 10° E
USA 281 3.6 11:01:57 10° S 11:08:03 41° WSW 11:14:12 10° NW
Cosmos 1515 Rocket 4.3 11:06:22 10° NNW 11:10:22 34° W 11:14:22 10° SSW
Cosmos 1818 4.1 11:05:06 10° SSW 11:10:24 60° ESE 11:15:47 10° NE
Cosmos 1833 Rocket 3.1 11:09:22 10° SW 11:14:48 49° WNW 11:20:17 10° NNE
Lacrosse 5 rocket 1.6 11:11:13 10° NW 11:14:51 65° NE 11:18:37 10° SE
Cosmos 1538 Rocket 4.1 11:10:10 10° SSW 11:15:31 79° WNW 11:20:52 10° NNE
Cosmos 1980 Rocket 3.7 11:12:15 10° N 11:17:33 42° ENE 11:22:49 10° SE
Cosmos 1484 Rocket 3.7 11:15:29 10° NNE 11:19:04 47° E 11:22:40 10° S
